| time (UTC) | temp F | wind direction | speed MPH | gust MPH | rain 1hr in | rain 24hr in | rain mn in | humidity % | barometer mb |
| 20260510022120 | 50 | 339 | 0.0 | 0.0 | 0.00 | 0.34 | 0.34 | 95 | 1009.1 |
| 20260510021616 | 50 | 339 | 0.0 | 0.0 | 0.00 | 0.34 | 0.34 | 94 | 1008.9 |
| 20260510021114 | 50 | 339 | 0.0 | 0.0 | 0.00 | 0.34 | 0.34 | 94 | 1009.0 |
| 20260510020613 | 50 | 339 | 0.0 | 2.0 | 0.00 | 0.34 | 0.34 | 95 | 1009.1 |
| 20260510020109 | 50 | 338 | 0.0 | 0.0 | 0.00 | 0.34 | 0.34 | 94 | 1009.0 |
| 20260510015605 | 50 | 338 | 1.0 | 1.0 | 0.00 | 0.34 | 0.34 | 94 | 1009.1 |
| 20260510015102 | 50 | 338 | 0.0 | 0.0 | 0.00 | 0.34 | 0.34 | 94 | 1008.9 |
| 20260510014558 | 50 | 338 | 0.0 | 0.0 | 0.00 | 0.34 | 0.34 | 94 | 1009.0 |
| 20260510014055 | 50 | 338 | 0.0 | 0.0 | 0.00 | 0.34 | 0.34 | 93 | 1009.1 |
| 20260510013549 | 50 | 338 | 0.0 | 1.0 | 0.00 | 0.34 | 0.34 | 93 | 1008.9 |
| 20260510013046 | 51 | 338 | 0.0 | 2.0 | 0.00 | 0.34 | 0.34 | 93 | 1009.0 |
| 20260510012545 | 51 | 12 | 0.0 | 0.0 | 0.00 | 0.34 | 0.34 | 93 | 1008.9 |
| 20260510012042 | 51 | 13 | 0.0 | 0.0 | 0.00 | 0.34 | 0.34 | 93 | 1009.0 |
| 20260510011542 | 51 | 13 | 0.0 | 0.0 | 0.00 | 0.34 | 0.34 | 93 | 1008.7 |
| 20260510011037 | 51 | 13 | 1.0 | 1.0 | 0.00 | 0.34 | 0.34 | 92 | 1008.7 |
| 20260510010534 | 51 | 13 | 0.0 | 0.0 | 0.00 | 0.34 | 0.34 | 92 | 1008.4 |
| 20260510010032 | 52 | 13 | 0.0 | 0.0 | 0.00 | 0.34 | 0.34 | 92 | 1008.6 |
| 20260510005527 | 52 | 12 | 1.0 | 2.0 | 0.00 | 0.34 | 0.34 | 92 | 1008.5 |
| 20260510005025 | 51 | 114 | 0.0 | 0.0 | 0.00 | 0.34 | 0.34 | 92 | 1008.3 |
| 20260510004522 | 52 | 114 | 0.0 | 0.0 | 0.00 | 0.34 | 0.34 | 91 | 1008.4 |
| 20260510004021 | 52 | 114 | 0.0 | 0.0 | 0.00 | 0.34 | 0.34 | 91 | 1008.4 |
| 20260510003517 | 52 | 114 | 0.0 | 0.0 | 0.00 | 0.34 | 0.34 | 91 | 1008.3 |
| 20260510003012 | 52 | 114 | 0.0 | 1.0 | 0.00 | 0.34 | 0.34 | 90 | 1008.2 |
| 20260510002508 | 53 | 114 | 0.0 | 0.0 | 0.00 | 0.34 | 0.34 | 89 | 1008.5 |
| 20260510002005 | 53 | 114 | 0.0 | 0.0 | 0.00 | 0.34 | 0.34 | 88 | 1008.3 |
| 20260510001503 | 53 | 114 | 0.0 | 0.0 | 0.00 | 0.34 | 0.34 | 88 | 1008.4 |
| 20260510001000 | 54 | 114 | 0.0 | 0.0 | 0.00 | 0.34 | 0.34 | 86 | 1008.2 |
| 20260510000456 | 54 | 114 | 0.0 | 0.0 | 0.00 | 0.34 | 0.34 | 84 | 1008.3 |
| 20260509235952 | 55 | 114 | 0.0 | 0.0 | 0.00 | 0.34 | 0.34 | 83 | 1008.4 |
| 20260509235449 | 55 | 114 | 0.0 | 0.0 | 0.00 | 0.34 | 0.34 | 82 | 1008.2 |
| 20260509234945 | 56 | 114 | 0.0 | 0.0 | 0.00 | 0.34 | 0.34 | 81 | 1008.0 |
| 20260509234442 | 56 | 297 | 0.0 | 2.0 | 0.00 | 0.34 | 0.34 | 80 | 1007.9 |
| 20260509233940 | 56 | 280 | 0.0 | 0.0 | 0.00 | 0.34 | 0.34 | 82 | 1007.8 |
| 20260509233438 | 56 | 280 | 0.0 | 0.0 | 0.00 | 0.34 | 0.34 | 81 | 1007.9 |
| 20260509232933 | 57 | 280 | 0.0 | 0.0 | 0.00 | 0.34 | 0.34 | 80 | 1007.9 |
| 20260509232431 | 57 | 280 | 0.0 | 2.0 | 0.00 | 0.34 | 0.34 | 79 | 1007.8 |
| 20260509231927 | 57 | 98 | 0.0 | 3.0 | 0.00 | 0.34 | 0.34 | 79 | 1007.7 |
| 20260509231424 | 57 | 88 | 0.0 | 2.0 | 0.00 | 0.34 | 0.34 | 81 | 1007.6 |
| 20260509230922 | 57 | 274 | 0.0 | 0.0 | 0.00 | 0.34 | 0.34 | 81 | 1007.4 |
| 20260509230418 | 57 | 274 | 0.0 | 1.0 | 0.00 | 0.34 | 0.34 | 81 | 1007.7 |
| 20260509225914 | 57 | 274 | 1.0 | 2.0 | 0.00 | 0.34 | 0.34 | 81 | 1007.6 |
| 20260509225411 | 57 | 355 | 0.0 | 0.0 | 0.00 | 0.34 | 0.34 | 82 | 1007.5 |
| 20260509224907 | 57 | 355 | 0.0 | 0.0 | 0.00 | 0.34 | 0.34 | 82 | 1007.6 |
| 20260509224403 | 57 | 355 | 0.0 | 0.0 | 0.00 | 0.34 | 0.34 | 82 | 1007.4 |
| 20260509223900 | 58 | 355 | 0.0 | 1.0 | 0.00 | 0.34 | 0.34 | 82 | 1007.8 |
| 20260509223357 | 58 | 355 | 0.0 | 1.0 | 0.00 | 0.34 | 0.34 | 82 | 1007.8 |
| 20260509222854 | 58 | 355 | 0.0 | 1.0 | 0.00 | 0.34 | 0.34 | 82 | 1008.0 |
| 20260509222354 | 57 | 355 | 0.0 | 4.0 | 0.00 | 0.34 | 0.34 | 80 | 1007.9 |
| 20260509221850 | 57 | 329 | 0.0 | 1.0 | 0.00 | 0.34 | 0.34 | 83 | 1008.0 |
| 20260509221348 | 57 | 329 | 1.0 | 2.0 | 0.00 | 0.34 | 0.34 | 82 | 1008.0 |
| 20260509220843 | 57 | 122 | 1.0 | 1.0 | 0.00 | 0.34 | 0.34 | 83 | 1008.1 |
| 20260509220339 | 57 | 336 | 0.0 | 1.0 | 0.00 | 0.34 | 0.34 | 82 | 1008.1 |
| 20260509215834 | 57 | 347 | 0.0 | 1.0 | 0.00 | 0.34 | 0.34 | 83 | 1008.0 |
| 20260509215331 | 56 | 81 | 0.0 | 1.0 | 0.00 | 0.34 | 0.34 | 86 | 1007.9 |
| 20260509214829 | 56 | 81 | 0.0 | 0.0 | 0.00 | 0.34 | 0.34 | 86 | 1008.0 |
| 20260509214326 | 56 | 26 | 0.0 | 2.0 | 0.00 | 0.34 | 0.34 | 86 | 1008.1 |
| 20260509213823 | 56 | 28 | 1.0 | 1.0 | 0.00 | 0.34 | 0.34 | 87 | 1008.2 |
| 20260509213318 | 56 | 34 | 0.0 | 1.0 | 0.00 | 0.34 | 0.34 | 88 | 1008.2 |
| 20260509212816 | 56 | 34 | 0.0 | 1.0 | 0.00 | 0.34 | 0.34 | 88 | 1008.1 |
| 20260509212314 | 56 | 18 | 0.0 | 0.0 | 0.00 | 0.34 | 0.34 | 90 | 1008.3 |
| 20260509211809 | 56 | 18 | 0.0 | 1.0 | 0.00 | 0.34 | 0.34 | 89 | 1008.3 |
| 20260509211305 | 56 | 18 | 0.0 | 0.0 | 0.00 | 0.34 | 0.34 | 89 | 1008.4 |
| 20260509210802 | 55 | 18 | 0.0 | 2.0 | 0.00 | 0.34 | 0.34 | 90 | 1008.5 |
| 20260509210300 | 55 | 18 | 0.0 | 2.0 | 0.00 | 0.34 | 0.34 | 88 | 1008.5 |
| 20260509205759 | 56 | 282 | 0.0 | 1.0 | 0.00 | 0.34 | 0.34 | 87 | 1008.4 |
| 20260509205254 | 56 | 119 | 0.0 | 1.0 | 0.00 | 0.34 | 0.34 | 90 | 1008.6 |
| 20260509204750 | 56 | 4 | 0.0 | 3.0 | 0.00 | 0.34 | 0.34 | 90 | 1008.5 |
| 20260509204246 | 55 | 4 | 0.0 | 0.0 | 0.00 | 0.34 | 0.34 | 91 | 1008.7 |
| 20260509203742 | 55 | 70 | 0.0 | 0.0 | 0.00 | 0.34 | 0.34 | 91 | 1008.9 |
| 20260509203241 | 55 | 70 | 0.0 | 0.0 | 0.00 | 0.34 | 0.34 | 92 | 1008.6 |
| 20260509202736 | 55 | 70 | 0.0 | 1.0 | 0.00 | 0.34 | 0.34 | 91 | 1008.8 |
| 20260509202232 | 55 | 70 | 0.0 | 1.0 | 0.00 | 0.34 | 0.34 | 91 | 1008.5 |
| 20260509201727 | 55 | 70 | 0.0 | 0.0 | 0.00 | 0.34 | 0.34 | 92 | 1008.7 |
| 20260509201224 | 54 | 70 | 0.0 | 0.0 | 0.00 | 0.34 | 0.34 | 94 | 1008.6 |
| 20260509200720 | 54 | 70 | 0.0 | 0.0 | 0.00 | 0.34 | 0.34 | 94 | 1008.7 |
| 20260509200215 | 53 | 70 | 0.0 | 0.0 | 0.00 | 0.34 | 0.34 | 94 | 1008.7 |
| 20260509195711 | 53 | 70 | 0.0 | 0.0 | 0.00 | 0.34 | 0.34 | 94 | 1008.7 |
| 20260509195207 | 53 | 35 | 0.0 | 0.0 | 0.00 | 0.34 | 0.34 | 94 | 1008.9 |
| 20260509194707 | 53 | 33 | 0.0 | 0.0 | 0.00 | 0.34 | 0.34 | 94 | 1008.9 |
| 20260509194204 | 53 | 33 | 0.0 | 0.0 | 0.05 | 0.34 | 0.34 | 94 | 1008.7 |
| 20260509193700 | 53 | 33 | 0.0 | 0.0 | 0.05 | 0.34 | 0.34 | 94 | 1008.9 |
| 20260509193155 | 52 | 33 | 0.0 | 0.0 | 0.00 | 0.33 | 0.33 | 94 | 1009.1 |
| 20260509192652 | 52 | 32 | 0.0 | 1.0 | 0.00 | 0.33 | 0.33 | 94 | 1009.1 |
| 20260509192147 | 52 | 36 | 0.0 | 0.0 | 0.00 | 0.33 | 0.33 | 94 | 1009.2 |
| 20260509191647 | 52 | 37 | 0.0 | 0.0 | 0.00 | 0.33 | 0.33 | 94 | 1009.2 |
| 20260509191144 | 52 | 37 | 0.0 | 0.0 | 0.07 | 0.33 | 0.33 | 94 | 1009.1 |
| 20260509190640 | 52 | 37 | 0.0 | 0.0 | 0.05 | 0.32 | 0.32 | 94 | 1009.5 |
| 20260509190138 | 52 | 36 | 0.0 | 0.0 | 0.12 | 0.32 | 0.32 | 94 | 1009.5 |
| 20260509185636 | 52 | 350 | 0.0 | 0.0 | 0.12 | 0.31 | 0.31 | 94 | 1009.4 |
| 20260509185131 | 52 | 350 | 0.0 | 0.0 | 0.12 | 0.30 | 0.30 | 94 | 1009.7 |
| 20260509184630 | 52 | 117 | 0.0 | 0.0 | 0.19 | 0.29 | 0.29 | 94 | 1009.6 |
| 20260509184126 | 52 | 117 | 0.0 | 0.0 | 0.12 | 0.28 | 0.28 | 94 | 1009.6 |
| 20260509183622 | 52 | 117 | 0.0 | 0.0 | 0.05 | 0.26 | 0.26 | 94 | 1009.7 |
| 20260509183117 | 52 | 272 | 0.0 | 0.0 | 0.05 | 0.26 | 0.26 | 94 | 1009.7 |
| 20260509182614 | 51 | 271 | 0.0 | 0.0 | 0.00 | 0.25 | 0.25 | 94 | 1009.6 |
| 20260509182111 | 51 | 271 | 0.0 | 0.0 | 0.07 | 0.25 | 0.25 | 93 | 1009.5 |
| 20260509181609 | 51 | 271 | 0.0 | 0.0 | 0.07 | 0.24 | 0.24 | 93 | 1009.5 |
| 20260509181106 | 52 | 9 | 0.0 | 0.0 | 0.12 | 0.24 | 0.24 | 93 | 1009.4 |
| 20260509180602 | 52 | 9 | 0.0 | 0.0 | 0.12 | 0.23 | 0.23 | 93 | 1009.5 |
| 20260509180059 | 52 | 9 | 0.0 | 0.0 | 0.12 | 0.22 | 0.22 | 93 | 1009.6 |
| 20260509175554 | 52 | 9 | 0.0 | 0.0 | 0.12 | 0.21 | 0.21 | 93 | 1009.9 |
| 20260509175052 | 52 | 9 | 0.0 | 0.0 | 0.12 | 0.20 | 0.20 | 92 | 1009.7 |
| 20260509174548 | 52 | 9 | 0.0 | 0.0 | 0.05 | 0.19 | 0.19 | 91 | 1009.6 |
| 20260509174044 | 52 | 52 | 0.0 | 0.0 | 0.07 | 0.18 | 0.18 | 91 | 1009.8 |
| 20260509173544 | 52 | 84 | 0.0 | 0.0 | 0.12 | 0.18 | 0.18 | 92 | 1009.6 |
| 20260509173040 | 52 | 84 | 0.0 | 0.0 | 0.05 | 0.17 | 0.17 | 91 | 1009.6 |
| 20260509172538 | 52 | 73 | 0.0 | 0.0 | 0.07 | 0.16 | 0.16 | 91 | 1009.5 |
| 20260509172033 | 52 | 265 | 0.0 | 0.0 | 0.12 | 0.16 | 0.16 | 92 | 1009.9 |
| 20260509171529 | 52 | 265 | 0.0 | 0.0 | 0.05 | 0.15 | 0.15 | 92 | 1009.8 |
| 20260509171026 | 52 | 265 | 0.0 | 0.0 | 0.07 | 0.14 | 0.14 | 91 | 1009.6 |
| 20260509170521 | 52 | 143 | 0.0 | 0.0 | 0.07 | 0.14 | 0.14 | 92 | 1009.8 |
| 20260509170018 | 52 | 143 | 0.0 | 0.0 | 0.05 | 0.13 | 0.13 | 92 | 1009.7 |
| 20260509165516 | 52 | 143 | 0.0 | 0.0 | 0.00 | 0.12 | 0.12 | 91 | 1009.9 |
| 20260509165012 | 52 | 143 | 0.0 | 0.0 | 0.07 | 0.12 | 0.12 | 91 | 1009.9 |
| 20260509164508 | 52 | 139 | 0.0 | 0.0 | 0.07 | 0.12 | 0.12 | 91 | 1009.7 |
| 20260509164004 | 52 | 139 | 0.0 | 0.0 | 0.00 | 0.11 | 0.11 | 90 | 1009.7 |
| 20260509163502 | 53 | 139 | 0.0 | 0.0 | 0.07 | 0.11 | 0.11 | 90 | 1009.9 |
| 20260509163001 | 53 | 129 | 0.0 | 0.0 | 0.07 | 0.11 | 0.11 | 90 | 1009.7 |
| 20260509162500 | 52 | 333 | 0.0 | 0.0 | 0.00 | 0.10 | 0.10 | 89 | 1009.8 |
| 20260509161955 | 52 | 147 | 0.0 | 0.0 | 0.05 | 0.10 | 0.10 | 90 | 1009.9 |
| 20260509161451 | 52 | 146 | 0.0 | 0.0 | 0.05 | 0.10 | 0.10 | 89 | 1009.9 |
| 20260509160947 | 53 | 147 | 0.0 | 0.0 | 0.00 | 0.09 | 0.09 | 89 | 1009.9 |
| 20260509160443 | 53 | 118 | 0.0 | 0.0 | 0.00 | 0.09 | 0.09 | 91 | 1009.9 |
| 20260509155938 | 52 | 146 | 0.0 | 0.0 | 0.00 | 0.09 | 0.09 | 90 | 1010.0 |
| 20260509155435 | 53 | 135 | 0.0 | 0.0 | 0.00 | 0.09 | 0.09 | 91 | 1009.8 |
| 20260509154932 | 52 | 132 | 0.0 | 0.0 | 0.00 | 0.09 | 0.09 | 90 | 1009.7 |
| 20260509154428 | 52 | 264 | 0.0 | 0.0 | 0.07 | 0.09 | 0.09 | 90 | 1009.7 |
| 20260509153925 | 52 | 121 | 0.0 | 0.0 | 0.07 | 0.09 | 0.09 | 90 | 1009.8 |
| 20260509153422 | 52 | 121 | 0.0 | 0.0 | 0.00 | 0.08 | 0.08 | 91 | 1010.0 |
| 20260509152919 | 52 | 121 | 0.0 | 1.0 | 0.00 | 0.08 | 0.08 | 92 | 1010.0 |
| 20260509152415 | 52 | 114 | 0.0 | 0.0 | 0.00 | 0.08 | 0.08 | 92 | 1010.1 |
| 20260509151912 | 51 | 113 | 0.0 | 2.0 | 0.00 | 0.08 | 0.08 | 92 | 1009.9 |
| 20260509151408 | 51 | 102 | 0.0 | 0.0 | 0.00 | 0.08 | 0.08 | 92 | 1010.1 |
| 20260509150907 | 51 | 103 | 0.0 | 0.0 | 0.00 | 0.08 | 0.08 | 92 | 1009.9 |
| 20260509150404 | 51 | 103 | 0.0 | 0.0 | 0.00 | 0.08 | 0.08 | 92 | 1009.8 |
| 20260509145902 | 51 | 103 | 0.0 | 2.0 | 0.00 | 0.08 | 0.08 | 92 | 1009.8 |
| 20260509145401 | 51 | 77 | 0.0 | 1.0 | 0.05 | 0.08 | 0.08 | 92 | 1009.9 |
| 20260509144858 | 51 | 118 | 0.0 | 0.0 | 0.05 | 0.08 | 0.08 | 92 | 1009.9 |
| 20260509144355 | 51 | 102 | 0.0 | 0.0 | 0.00 | 0.07 | 0.07 | 92 | 1009.7 |
| 20260509143851 | 51 | 102 | 0.0 | 1.0 | 0.00 | 0.07 | 0.07 | 91 | 1009.9 |
| 20260509143349 | 51 | 102 | 0.0 | 1.0 | 0.07 | 0.07 | 0.07 | 90 | 1009.8 |
| 20260509142845 | 51 | 81 | 0.0 | 0.0 | 0.07 | 0.07 | 0.07 | 91 | 1009.8 |
| 20260509142341 | 51 | 329 | 0.0 | 0.0 | 0.00 | 0.06 | 0.06 | 92 | 1009.9 |
| 20260509141837 | 51 | 330 | 0.0 | 0.0 | 0.05 | 0.06 | 0.06 | 92 | 1010.1 |
| 20260509141334 | 51 | 329 | 0.0 | 0.0 | 0.05 | 0.06 | 0.06 | 92 | 1010.3 |
| 20260509140831 | 51 | 330 | 0.0 | 0.0 | 0.00 | 0.05 | 0.05 | 92 | 1010.5 |
| 20260509140328 | 51 | 330 | 0.0 | 0.0 | 0.00 | 0.05 | 0.05 | 92 | 1010.4 |
| 20260509135826 | 51 | 330 | 0.0 | 0.0 | 0.07 | 0.05 | 0.05 | 92 | 1010.1 |
| 20260509135323 | 51 | 330 | 0.0 | 0.0 | 0.00 | 0.04 | 0.04 | 91 | 1010.0 |
| 20260509134820 | 51 | 330 | 0.0 | 0.0 | 0.05 | 0.04 | 0.04 | 91 | 1010.1 |
| 20260509134317 | 51 | 330 | 0.0 | 1.0 | 0.05 | 0.04 | 0.04 | 90 | 1009.8 |
| 20260509133814 | 51 | 330 | 0.0 | 0.0 | 0.00 | 0.03 | 0.03 | 89 | 1010.0 |
| 20260509133311 | 51 | 330 | 0.0 | 0.0 | 0.00 | 0.03 | 0.03 | 88 | 1009.9 |
| 20260509132810 | 51 | 330 | 0.0 | 1.0 | 0.00 | 0.03 | 0.03 | 88 | 1010.0 |
| 20260509132308 | 51 | 3 | 0.0 | 0.0 | 0.00 | 0.03 | 0.03 | 88 | 1009.8 |
| 20260509131804 | 51 | 2 | 0.0 | 1.0 | 0.07 | 0.03 | 0.03 | 88 | 1009.6 |
| 20260509131301 | 51 | 3 | 0.0 | 0.0 | 0.07 | 0.03 | 0.03 | 86 | 1009.9 |
| 20260509130757 | 51 | 349 | 1.0 | 1.0 | 0.00 | 0.02 | 0.02 | 87 | 1009.7 |
| 20260509130253 | 51 | 282 | 2.0 | 2.0 | 0.00 | 0.02 | 0.02 | 89 | 1009.8 |
| 20260509125749 | 50 | 275 | 0.0 | 1.0 | 0.00 | 0.02 | 0.02 | 89 | 1009.9 |
| 20260509125247 | 50 | 274 | 0.0 | 2.0 | 0.00 | 0.02 | 0.02 | 89 | 1009.7 |
| 20260509124743 | 50 | 9 | 0.0 | 1.0 | 0.00 | 0.02 | 0.02 | 91 | 1009.5 |
| 20260509124239 | 50 | 13 | 3.0 | 3.0 | 0.00 | 0.02 | 0.02 | 92 | 1009.5 |
| 20260509123738 | 50 | 86 | 0.0 | 2.0 | 0.00 | 0.02 | 0.02 | 94 | 1009.5 |
| 20260509123235 | 50 | 65 | 0.0 | 0.0 | 0.00 | 0.02 | 0.02 | 95 | 1009.9 |
| 20260509122730 | 49 | 64 | 0.0 | 0.0 | 0.00 | 0.02 | 0.02 | 95 | 1009.4 |
| 20260509122227 | 49 | 65 | 0.0 | 0.0 | 0.00 | 0.02 | 0.02 | 95 | 1009.4 |
| 20260509121724 | 49 | 63 | 0.0 | 0.0 | 0.00 | 0.02 | 0.02 | 95 | 1009.7 |
| 20260509121222 | 49 | 76 | 0.0 | 0.0 | 0.00 | 0.02 | 0.02 | 95 | 1009.8 |
| 20260509120720 | 48 | 76 | 0.0 | 0.0 | 0.00 | 0.02 | 0.02 | 95 | 1009.5 |
| 20260509120217 | 48 | 76 | 0.0 | 0.0 | 0.00 | 0.02 | 0.02 | 95 | 1009.7 |
| 20260509115715 | 48 | 76 | 0.0 | 0.0 | 0.00 | 0.02 | 0.02 | 95 | 1009.6 |
| 20260509115212 | 48 | 76 | 0.0 | 0.0 | 0.00 | 0.02 | 0.02 | 95 | 1009.7 |
| 20260509114710 | 48 | 76 | 0.0 | 0.0 | 0.00 | 0.02 | 0.02 | 96 | 1009.7 |
| 20260509114209 | 48 | 76 | 0.0 | 0.0 | 0.00 | 0.02 | 0.02 | 96 | 1009.6 |
| 20260509113707 | 48 | 76 | 0.0 | 0.0 | 0.00 | 0.02 | 0.02 | 96 | 1009.9 |
| 20260509113204 | 48 | 76 | 0.0 | 0.0 | 0.00 | 0.02 | 0.02 | 96 | 1009.8 |
| 20260509112700 | 48 | 77 | 0.0 | 0.0 | 0.05 | 0.02 | 0.02 | 95 | 1009.8 |
| 20260509112157 | 48 | 76 | 0.0 | 0.0 | 0.05 | 0.02 | 0.02 | 96 | 1009.8 |
| 20260509111655 | 48 | 77 | 0.0 | 0.0 | 0.00 | 0.01 | 0.01 | 95 | 1009.9 |
| 20260509111151 | 48 | 60 | 0.0 | 0.0 | 0.00 | 0.01 | 0.01 | 95 | 1009.8 |
| 20260509110648 | 48 | 60 | 0.0 | 0.0 | 0.00 | 0.01 | 0.01 | 95 | 1010.0 |
| 20260509110145 | 48 | 60 | 0.0 | 0.0 | 0.00 | 0.01 | 0.01 | 95 | 1009.9 |
| 20260509105643 | 48 | 60 | 0.0 | 0.0 | 0.00 | 0.01 | 0.01 | 95 | 1010.0 |
| 20260509105141 | 47 | 60 | 0.0 | 0.0 | 0.00 | 0.01 | 0.01 | 95 | 1009.6 |
| 20260509104638 | 47 | 60 | 0.0 | 0.0 | 0.00 | 0.01 | 0.01 | 95 | 1009.6 |
| 20260509104134 | 47 | 60 | 0.0 | 0.0 | 0.00 | 0.01 | 0.01 | 95 | 1010.0 |
| 20260509103632 | 47 | 60 | 0.0 | 0.0 | 0.00 | 0.01 | 0.01 | 95 | 1009.7 |
| 20260509103130 | 47 | 60 | 0.0 | 0.0 | 0.07 | 0.01 | 0.01 | 95 | 1009.7 |
| 20260509102627 | 47 | 60 | 0.0 | 0.0 | 0.00 | 0.00 | 0.00 | 95 | 1009.8 |
| 20260509102124 | 47 | 60 | 0.0 | 0.0 | 0.00 | 0.00 | 0.00 | 95 | 1009.6 |
| 20260509101620 | 47 | 60 | 0.0 | 0.0 | 0.00 | 0.00 | 0.00 | 95 | 1009.6 |
| 20260509101117 | 47 | 60 | 0.0 | 0.0 | 0.00 | 0.00 | 0.00 | 95 | 1009.5 |
| 20260509100614 | 47 | 60 | 0.0 | 0.0 | 0.00 | 0.00 | 0.00 | 95 | 1009.6 |
| 20260509100112 | 47 | 67 | 0.0 | 0.0 | 0.00 | 0.00 | 0.00 | 95 | 1009.5 |
| 20260509095608 | 47 | 13 | 0.0 | 1.0 | 0.00 | 0.00 | 0.00 | 95 | 1009.1 |
| 20260509095106 | 47 | 13 | 1.0 | 1.0 | 0.00 | 0.00 | 0.00 | 95 | 1009.4 |
| 20260509094602 | 47 | 358 | 0.0 | 0.0 | 0.00 | 0.00 | 0.00 | 95 | 1009.6 |
| 20260509094059 | 47 | 358 | 0.0 | 0.0 | 0.00 | 0.00 | 0.00 | 95 | 1009.5 |
| 20260509093557 | 47 | 358 | 0.0 | 0.0 | 0.00 | 0.00 | 0.00 | 95 | 1009.6 |
| 20260509093054 | 47 | 358 | 0.0 | 0.0 | 0.00 | 0.00 | 0.00 | 95 | 1009.8 |
| 20260509092552 | 47 | 358 | 0.0 | 0.0 | 0.00 | 0.00 | 0.00 | 95 | 1009.7 |
| 20260509092051 | 47 | 358 | 0.0 | 0.0 | 0.00 | 0.00 | 0.00 | 95 | 1009.7 |
| 20260509091548 | 47 | 358 | 0.0 | 0.0 | 0.00 | 0.00 | 0.00 | 95 | 1009.7 |
| 20260509091044 | 47 | 358 | 0.0 | 0.0 | 0.00 | 0.00 | 0.00 | 95 | 1009.7 |
| 20260509090542 | 47 | 358 | 0.0 | 0.0 | 0.00 | 0.00 | 0.00 | 95 | 1009.8 |
| 20260509090040 | 47 | 358 | 0.0 | 0.0 | 0.00 | 0.00 | 0.00 | 95 | 1010.1 |
| 20260509085536 | 47 | 358 | 0.0 | 0.0 | 0.00 | 0.00 | 0.00 | 95 | 1010.0 |
| 20260509085032 | 47 | 358 | 0.0 | 0.0 | 0.00 | 0.00 | 0.00 | 95 | 1010.3 |
| 20260509084530 | 47 | 358 | 0.0 | 0.0 | 0.00 | 0.00 | 0.00 | 95 | 1010.0 |
| 20260509084027 | 47 | 358 | 0.0 | 0.0 | 0.00 | 0.00 | 0.00 | 95 | 1010.1 |
| 20260509083524 | 47 | 358 | 0.0 | 0.0 | 0.00 | 0.00 | 0.00 | 95 | 1010.5 |
| 20260509083020 | 47 | 358 | 0.0 | 0.0 | 0.00 | 0.00 | 0.00 | 95 | 1010.4 |
| 20260509082518 | 47 | 358 | 0.0 | 0.0 | 0.00 | 0.00 | 0.00 | 95 | 1010.5 |
| 20260509082015 | 47 | 358 | 0.0 | 0.0 | 0.00 | 0.00 | 0.00 | 95 | 1010.6 |
| 20260509081512 | 47 | 358 | 0.0 | 0.0 | 0.00 | 0.00 | 0.00 | 95 | 1010.8 |
| 20260509081009 | 47 | 358 | 0.0 | 0.0 | 0.00 | 0.00 | 0.00 | 95 | 1010.7 |
| 20260509080507 | 47 | 358 | 0.0 | 0.0 | 0.00 | 0.00 | 0.00 | 95 | 1010.9 |
| 20260509080005 | 47 | 358 | 0.0 | 0.0 | 0.00 | 0.00 | 0.00 | 95 | 1010.8 |
| 20260509075502 | 48 | 357 | 0.0 | 0.0 | 0.00 | 0.00 | 0.00 | 95 | 1010.7 |
| 20260509074959 | 47 | 358 | 0.0 | 0.0 | 0.00 | 0.00 | 0.00 | 95 | 1010.7 |
| 20260509074457 | 47 | 358 | 0.0 | 0.0 | 0.00 | 0.00 | 0.00 | 95 | 1010.5 |
| 20260509073953 | 47 | 358 | 0.0 | 0.0 | 0.00 | 0.00 | 0.00 | 95 | 1010.5 |
| 20260509073449 | 47 | 358 | 0.0 | 0.0 | 0.00 | 0.00 | 0.00 | 95 | 1010.9 |
| 20260509072946 | 47 | 358 | 0.0 | 0.0 | 0.00 | 0.00 | 0.00 | 95 | 1010.9 |
| 20260509072443 | 47 | 358 | 0.0 | 0.0 | 0.00 | 0.00 | 0.00 | 95 | 1011.2 |
| 20260509071940 | 47 | 358 | 0.0 | 0.0 | 0.00 | 0.00 | 0.00 | 95 | 1011.1 |
| 20260509071436 | 48 | 358 | 0.0 | 0.0 | 0.00 | 0.00 | 0.00 | 95 | 1010.8 |
| 20260509070934 | 48 | 358 | 0.0 | 0.0 | 0.00 | 0.00 | 0.00 | 95 | 1011.1 |
| 20260509070431 | 48 | 358 | 0.0 | 0.0 | 0.00 | 0.00 | 0.00 | 95 | 1010.9 |
| 20260509065926 | 48 | 358 | 0.0 | 0.0 | 0.00 | 0.00 | 0.00 | 95 | 1010.5 |
| 20260509065422 | 48 | 358 | 0.0 | 0.0 | 0.00 | 0.00 | 0.00 | 95 | 1010.4 |
| 20260509064919 | 48 | 358 | 0.0 | 0.0 | 0.00 | 0.00 | 0.00 | 95 | 1010.3 |
| 20260509064416 | 48 | 358 | 0.0 | 0.0 | 0.00 | 0.00 | 0.00 | 95 | 1010.5 |
| 20260509063914 | 48 | 358 | 0.0 | 0.0 | 0.00 | 0.00 | 0.00 | 94 | 1010.6 |
| 20260509063410 | 48 | 358 | 0.0 | 0.0 | 0.00 | 0.00 | 0.00 | 94 | 1010.5 |
| 20260509062907 | 48 | 358 | 0.0 | 0.0 | 0.00 | 0.00 | 0.00 | 94 | 1010.8 |
| 20260509062404 | 48 | 358 | 0.0 | 0.0 | 0.00 | 0.00 | 0.00 | 94 | 1010.8 |
| 20260509061901 | 48 | 358 | 0.0 | 0.0 | 0.00 | 0.00 | 0.00 | 94 | 1010.9 |
| 20260509061359 | 48 | 358 | 0.0 | 0.0 | 0.00 | 0.00 | 0.00 | 94 | 1010.8 |
| 20260509060856 | 47 | 358 | 0.0 | 0.0 | 0.00 | 0.00 | 0.00 | 94 | 1011.1 |
| 20260509060353 | 47 | 358 | 0.0 | 0.0 | 0.00 | 0.00 | 0.00 | 94 | 1011.1 |
| 20260509055848 | 47 | 358 | 0.0 | 0.0 | 0.00 | 0.00 | 0.00 | 94 | 1011.5 |
| 20260509055344 | 47 | 358 | 0.0 | 0.0 | 0.00 | 0.00 | 0.00 | 94 | 1011.3 |
| 20260509054841 | 47 | 358 | 0.0 | 0.0 | 0.00 | 0.00 | 0.00 | 94 | 1011.4 |
| 20260509054338 | 47 | 358 | 0.0 | 0.0 | 0.00 | 0.00 | 0.00 | 94 | 1011.7 |
| 20260509053836 | 47 | 358 | 0.0 | 1.0 | 0.00 | 0.00 | 0.00 | 94 | 1011.6 |
| 20260509053333 | 47 | 358 | 1.0 | 1.0 | 0.00 | 0.00 | 0.00 | 94 | 1011.6 |
| 20260509052831 | 47 | 358 | 1.0 | 2.0 | 0.00 | 0.00 | 0.00 | 94 | 1011.6 |
| 20260509052328 | 47 | 357 | 0.0 | 0.0 | 0.00 | 0.00 | 0.00 | 94 | 1011.4 |
| 20260509051826 | 47 | 357 | 0.0 | 0.0 | 0.00 | 0.00 | 0.00 | 94 | 1011.5 |
| 20260509051324 | 47 | 357 | 0.0 | 1.0 | 0.00 | 0.00 | 0.00 | 94 | 1011.2 |
| 20260509050820 | 47 | 357 | 0.0 | 0.0 | 0.00 | 0.00 | 0.00 | 94 | 1011.3 |
| 20260509050317 | 47 | 357 | 0.0 | 1.0 | 0.00 | 0.00 | 0.00 | 94 | 1011.3 |
| 20260509045814 | 47 | 357 | 1.0 | 1.0 | 0.00 | 0.00 | 0.00 | 94 | 1011.4 |
| 20260509045311 | 47 | 357 | 0.0 | 0.0 | 0.00 | 0.00 | 0.00 | 94 | 1011.2 |
| 20260509044808 | 47 | 357 | 0.0 | 0.0 | 0.00 | 0.00 | 0.00 | 94 | 1011.1 |
| 20260509044306 | 47 | 357 | 0.0 | 0.0 | 0.00 | 0.00 | 0.00 | 94 | 1010.9 |
| 20260509043802 | 47 | 357 | 0.0 | 1.0 | 0.00 | 0.00 | 0.00 | 94 | 1011.1 |
| 20260509043258 | 47 | 357 | 0.0 | 0.0 | 0.00 | 0.00 | 0.00 | 93 | 1010.8 |
| 20260509042754 | 47 | 357 | 0.0 | 0.0 | 0.00 | 0.00 | 0.00 | 93 | 1011.1 |
| 20260509042250 | 47 | 357 | 0.0 | 0.0 | 0.00 | 0.00 | 0.00 | 93 | 1011.2 |
| 20260509041747 | 47 | 357 | 0.0 | 0.0 | 0.00 | 0.00 | 0.00 | 93 | 1011.1 |
| 20260509041244 | 47 | 357 | 0.0 | 0.0 | 0.00 | 0.00 | 0.00 | 92 | 1011.2 |
| 20260509040743 | 47 | 357 | 0.0 | 0.0 | 0.00 | 0.00 | 0.00 | 93 | 1011.3 |
| 20260509040239 | 47 | 357 | 0.0 | 1.0 | 0.00 | 0.00 | 0.00 | 93 | 1011.3 |
| 20260509035736 | 47 | 357 | 0.0 | 0.0 | 0.00 | 0.05 | 0.05 | 92 | 1011.4 |
| 20260509035233 | 47 | 357 | 0.0 | 0.0 | 0.05 | 0.05 | 0.05 | 92 | 1011.5 |
| 20260509034730 | 47 | 357 | 0.0 | 0.0 | 0.05 | 0.05 | 0.05 | 92 | 1011.5 |
| 20260509034228 | 48 | 357 | 1.0 | 2.0 | 0.00 | 0.04 | 0.04 | 92 | 1011.5 |
| 20260509033724 | 48 | 358 | 0.0 | 0.0 | 0.00 | 0.04 | 0.04 | 92 | 1011.4 |
| 20260509033222 | 48 | 358 | 0.0 | 0.0 | 0.00 | 0.04 | 0.04 | 92 | 1011.3 |
| 20260509032719 | 48 | 358 | 0.0 | 0.0 | 0.00 | 0.04 | 0.04 | 92 | 1011.4 |
| 20260509032216 | 48 | 358 | 0.0 | 0.0 | 0.00 | 0.04 | 0.04 | 92 | 1011.5 |
| 20260509031713 | 48 | 358 | 0.0 | 0.0 | 0.00 | 0.04 | 0.04 | 93 | 1011.4 |
| 20260509031210 | 48 | 358 | 0.0 | 0.0 | 0.00 | 0.04 | 0.04 | 92 | 1011.7 |
| 20260509030708 | 48 | 358 | 0.0 | 0.0 | 0.00 | 0.04 | 0.04 | 92 | 1011.9 |
| 20260509030205 | 48 | 358 | 0.0 | 0.0 | 0.00 | 0.04 | 0.04 | 92 | 1011.8 |
| 20260509025701 | 48 | 358 | 0.0 | 0.0 | 0.00 | 0.04 | 0.04 | 92 | 1012.0 |
| 20260509025158 | 48 | 358 | 0.0 | 0.0 | 0.00 | 0.04 | 0.04 | 92 | 1011.8 |
| 20260509024653 | 48 | 358 | 0.0 | 0.0 | 0.00 | 0.04 | 0.04 | 92 | 1011.8 |
| 20260509024149 | 48 | 358 | 0.0 | 0.0 | 0.00 | 0.04 | 0.04 | 92 | 1011.7 |
| 20260509023647 | 47 | 358 | 0.0 | 0.0 | 0.00 | 0.04 | 0.04 | 91 | 1011.3 |
| 20260509023144 | 48 | 358 | 0.0 | 0.0 | 0.00 | 0.04 | 0.04 | 91 | 1011.5 |
| 20260509022640 | 48 | 358 | 0.0 | 0.0 | 0.00 | 0.04 | 0.04 | 91 | 1011.4 |